FOLSOM LAKE (FOL)

Elevation: 466' · AMERICAN R basin · Operator: US Bureau of Reclamation

Provisional data, subject to change.
Query executed Saturday at 7:56:20   clock

Select a sensor type for a plot of data.
Note: Reservoir Flows are daily averages.

Earlier

Date RES ELE    STORAGE    RES CHG    TOC STO    ABV TOC    OUTFLOW    INFLOW    EVAP    FNF    RIV REL    PPT INC    SPILL    DC PUMP    DIS PWR   
 FEET   AF   AF   AF   AF   CFS   CFS   CFS   CFS   CFS   INCHES   CFS   CFS   CFS  
07/01/2016 440.39 710118 -5106 977000 -266882 4659 2200 115 733 e 0 0.00 0 193 4466
07/02/2016 439.79 704350 -5768 977000 -272650 4854 2067 121 943 0 0.00 0 191 4663
07/03/2016 439.12 697938 -6412 977000 -279062 4933 1821 121 733 e 0 0.00 0 199 4734
07/04/2016 438.45 691561 -6377 977000 -285439 5021 1926 120 625 e 0 0.00 0 187 4834
07/05/2016 437.69 684358 -7203 977000 -292642 5243 1716 104 610 0 0.00 0 186 5057
07/06/2016 436.97 677564 -6794 977000 -299436 4747 1422 100 625 e 0 0.00 0 177 4570
07/07/2016 436.09 669316 -8248 977000 -307684 5868 1809 99 497 e 0 0.00 0 173 5695
07/08/2016 435.26 661585 -7731 977000 -315415 5441 1636 93 496 e 0 0.00 0 193 5248
07/09/2016 434.60 655469 -6116 977000 -321531 5369 2391 105 564 0 0.00 0 202 5167
07/10/2016 433.81 648183 -7286 977000 -328817 5457 1882 98 541 e 0 0.00 0 210 5247
07/11/2016 432.90 639844 -8339 977000 -- 5476 1372 100 541 e 0 0.00 0 206 5270
07/12/2016 432.09 632470 -7374 977000 -344530 5206 1588 100 257 0 0.00 0 203 5003
07/13/2016 431.21 624513 -7957 977000 -352487 5421 1508 99 268 e 0 0.00 0 211 5210
07/14/2016 430.45 617685 -6828 977000 -359315 5301 1972 113 268 e 0 0.00 0 210 5091
07/15/2016 429.67 610714 -6971 977000 -366286 5186 1776 104 268 e 0 0.00 0 218 4968
07/16/2016 428.78 602813 -7901 977000 -374187 5636 1753 100 269 e 0 0.00 0 215 5421
07/17/2016 427.84 594530 -8283 977000 -382470 5558 1482 100 319 e 0 0.00 0 219 5339
07/18/2016 426.88 586138 -8392 977000 -390862 5056 915 90 319 e 0 0.00 0 209 4847
07/19/2016 425.95 578070 -8068 977000 -398930 5555 1574 87 269 e 0 0.00 0 208 5347
07/20/2016 425.02 570065 -8005 977000 -406935 5487 1534 83 232 0 0.00 0 208 5279
07/21/2016 424.11 562299 -7766 977000 -- 5395 1585 105 225 0 0.00 0 210 5185
07/22/2016 423.13 554002 -8297 977000 -422998 5537 1439 85 343 e 0 0.00 0 214 5323
07/23/2016 422.21 546282 -7720 977000 -430718 5485 1700 107 273 e 0 0.00 0 217 5268
07/24/2016 421.24 538210 -8072 977000 -438790 5560 1590 100 273 e 0 0.00 0 222 5338
07/25/2016 420.28 530291 -7919 977000 -446709 5511 1616 97 343 e 0 0.00 0 225 5286
07/26/2016 419.33 522524 -7767 977000 -454476 5294 1474 96 273 e 0 0.00 0 221 5073
07/27/2016 418.40 514987 -7537 977000 -462013 5301 1596 95 329 0 0.00 0 229 5072
07/28/2016 417.43 507193 -7794 977000 -469807 5511 1682 100 357 0 0.00 0 222 5289
07/29/2016 416.46 499469 -7724 977000 -477531 5466 1689 117 -- 0 0.00 0 229 5237
07/30/2016 -- -- -- -- -- -- -- -- -- -- -- -- -- --

Later | Latest

Warning! This data is preliminary and subject to revision.

Show FOL Map | Plot FOL Data | 1 Month FOL Data | Real-Time FOL Data | FOL Info